Вернуться в каталог

COSMOS 1375 DEB

АктивенLEO
NORAD 17807·DEBRIS·🇷🇺 Russia

Запущен Jun 6, 1982 с Plesetsk Cosmodrome

Loading…

Ближайшие Пролёты (ближайшие 24 часа)

TLE

СвежийSource: Space-Track

Эпоха: Sep 14, 2026, 22:41 UTC

1 17807U 82055AZ  26257.94560601  .00000497  00000-0  52537-3 0  9991
2 17807  65.8285 238.4242 0066143 272.8410 107.0851 13.82543161 51875

Отслеживайте COSMOS 1375 DEB в реальном времени с AllMySat

Download on the App Store